Flag for Netherlands Weather past 2 weeks in Emmen, Netherlands

Now
79 °F

Passing clouds.


Feels Like: 80 °F
Forecast: 58 / 72 °F
Wind: 2 mph from East

Location: Meppen

Current Time: Jul 29, 2014 at 1:49:41 PM

Latest Report: Jul 29, 2014 at 1:00 PM


Visibility: 19 mi

Pressure: 29.86 "Hg

Humidity: 50%

Dew point: 58 °F

Location of EmmenLocation

Historic Weather in Emmen — Graph

°F

Emmen temperature yesterday

Maximum temperature yesterday: 78 °F (at 6:00 PM)
Minimum temperature yesterday: 59 °F (at 4:00 AM)
Average temperature yesterday: 68 °F

Past Weeks' High & Low Weather Summary

 TemperatureHumidityPressure
High93 °F (Jul 19, 4:00 PM)95% (Jul 16, 7:00 AM)30.20 "Hg (Jul 16, 7:00 AM)
Low53 °F (Jul 16, 6:00 AM)22% (Jul 19, 3:00 PM)29.76 "Hg (Jul 20, 6:00 PM)
Average70 °F72%30.00 "Hg
* Reported Jul 14 12:00 Noon — Jul 29 12:00 Noon, Emmen, Weather by CustomWeather, © 2014

Note: Actual official high and low records may vary slightly from our data, if they occured in-between our weather recording intervals... More about our weather records

Advertising

Emmen weather history for previous 24 hours

 ConditionsComfort  
Time TempWeatherWind HumidityBarometerVisibility
12:00 PM
Jul 29
78 °FPassing clouds.3 mph55%29.87 "Hg16 mi
10:00 AM74 °FPassing clouds.5 mph67%29.88 "Hg9 mi
9:00 AM70 °FPassing clouds.3 mph82%29.88 "Hg7 mi
8:00 AM67 °FFog.3 mph91%29.87 "Hg3 mi
7:00 AM65 °FFog.3 mph93%29.87 "Hg2 mi
6:00 AM65 °FFog.3 mph93%29.87 "Hg2 mi
4:00 AM65 °FMild.5 mph92%29.88 "Hg3 mi
3:00 AM65 °FMild.5 mph90%29.88 "Hg4 mi
1:00 AM67 °FMild.2 mph87%29.90 "Hg4 mi
12:00 AM68 °FMild.3 mph84%29.89 "Hg5 mi
10:00 PM
Jul 28
N/APassing clouds.N/AN/AN/A2 mi
9:00 PM73 °FMild.5 mph73%29.88 "Hg6 mi
8:00 PM75 °FMild.5 mph68%29.86 "Hg6 mi
7:00 PM76 °FMild.3 mph59%29.86 "Hg6 mi
6:00 PM78 °FWarm.5 mph53%29.87 "Hg6 mi
4:00 PMN/APassing clouds.7 mphN/AN/A2 mi
3:00 PM78 °FPassing clouds.5 mph55%29.89 "Hg19 mi
2:00 PM76 °FScattered clouds.6 mph60%29.90 "Hg17 mi
1:00 PM74 °FPartly sunny.5 mph68%29.92 "Hg15 mi
Weather by CustomWeather, © 2014

See weather overviewHow to use our weather pages